Torna al catalogo

OPS 4682 DEB

AttivoPO
NORAD 18965·DEBRIS·🇺🇸 United States

Lanciato Apr 3, 1965 da Vandenberg Space Force Base

Loading…

Prossimi Passaggi (prossime 24 ore)

TLE

AggiornatoSource: Space-Track

Epoca: Sep 14, 2026, 13:34 UTC

1 18965U 65027AN  26257.56549421  .00000017  00000-0  30461-4 0  9993
2 18965  90.2811  28.2787 0047068 200.2177 292.4570 12.99898083962104

Traccia OPS 4682 DEB in tempo reale con AllMySat

Download on the App Store